This is the latest recevied weather packets stored in our database for station/object KF0FSA. If no packets are shown the sender has not sent any weather packets the latest 10 day(s).
| Time | Temp. | Humidity | Pressure | Rain* | Wind** | Luminosity | Snow |
|---|---|---|---|---|---|---|---|
| 1777742901 | 18.33° C | 34% | 963.7 hPa | 0 mm | - | 877 W/m² | - |
| 1777742298 | 17.78° C | 34% | 963.9 hPa | 0 mm | - | 866 W/m² | - |
| 1777741689 | 17.78° C | 34% | 964 hPa | 0 mm | - | 838 W/m² | - |
| 1777739414 | 17.22° C | 38% | 964.2 hPa | 0 mm | - | 792 W/m² | - |
| 1777738690 | 16.67° C | 41% | 964.5 hPa | 0 mm | - | 775 W/m² | - |
| 1777738090 | 16.11° C | 41% | 964.5 hPa | 0 mm | - | 746 W/m² | - |
| 1777737609 | 15° C | 44% | 964.5 hPa | 0 mm | - | 731 W/m² | - |
| 1777736885 | 14.44° C | 42% | 964.5 hPa | 0 mm | - | 708 W/m² | - |
| 1777736284 | 14.44° C | 43% | 964.7 hPa | 0 mm | - | 679 W/m² | - |
| 1777735984 | 14.44° C | 43% | 964.7 hPa | 0 mm | - | 669 W/m² | - |
| 1777735684 | 13.89° C | 44% | 964.7 hPa | 0 mm | - | 659 W/m² | - |
| 1777735384 | 13.89° C | 43% | 964.7 hPa | 0 mm | - | 646 W/m² | - |
| 1777735084 | 13.89° C | 42% | 964.7 hPa | 0 mm | - | 628 W/m² | - |
| 1777734784 | 13.89° C | 41% | 964.7 hPa | 0 mm | - | 617 W/m² | - |
| 1777734485 | 13.33° C | 42% | 964.7 hPa | 0 mm | - | 602 W/m² | - |
| 1777734310 | 13.33° C | 41% | 964.7 hPa | 0 mm | - | 589 W/m² | - |
| 1777733885 | 13.33° C | 40% | 964.7 hPa | 0 mm | - | 574 W/m² | - |
| 1777733709 | 12.78° C | 41% | 964.7 hPa | 0 mm | - | 559 W/m² | - |
| 1777733282 | 12.78° C | 44% | 964.8 hPa | 0 mm | - | 545 W/m² | - |
| 1777732680 | 12.22° C | 44% | 964.8 hPa | 0 mm | - | 513 W/m² | - |
| 1777732376 | 11.67° C | 44% | 964.9 hPa | 0 mm | - | 501 W/m² | - |
| 1777732077 | 11.67° C | 44% | 964.9 hPa | 0 mm | - | 483 W/m² | - |
| 1777731776 | 11.11° C | 46% | 964.9 hPa | 0 mm | - | 468 W/m² | - |
| 1777731475 | 11.11° C | 45% | 965 hPa | 0 mm | - | 431 W/m² | - |
| 1777731174 | 10.56° C | 47% | 965 hPa | 0 mm | - | 408 W/m² | - |
* Rain latest hour (hover to see other rain measurements)
** Current wind speed in m/s (hover to see current wind gust speed)